FW3274 Weather Reports


Display with metric or nautical units.
time (UTC)temp
F
wind
direction
speed
MPH
gust
MPH
rain 1hr
in
rain 24hr
in
rain mn
in
humidity
%
barometer
mb
20260904171540 85 140 0.0 0.0 0.00 0.00 0.00 58 1010.8
20260904170039 86 231 0.0 2.0 0.00 0.00 0.00 56 1010.8
20260904164537 87 205 0.0 5.0 0.00 0.00 0.00 54 1010.9
20260904163037 88 223 0.0 5.0 0.00 0.00 0.00 55 1010.8
20260904161540 89 184 0.0 5.0 0.00 0.00 0.00 52 1010.7
20260904160035 90 194 0.0 6.0 0.00 0.00 0.00 51 1010.8
20260904154533 90 212 0.0 5.0 0.00 0.00 0.00 51 1010.9
20260904153033 91 242 0.0 7.0 0.00 0.00 0.00 51 1010.9
20260904151531 91 59 0.0 3.0 0.00 0.00 0.00 50 1011.0
20260904150051 92 219 0.0 3.0 0.00 0.00 0.00 45 1011.1
20260904144528 92 222 0.0 2.0 0.00 0.00 0.00 42 1011.2
20260904143027 92 226 0.0 3.0 0.00 0.00 0.00 43 1011.2
20260904141523 92 276 0.0 5.0 0.00 0.00 0.00 40 1011.4
20260904140022 92 166 0.0 3.0 0.00 0.00 0.00 41 1011.7
20260904134538 92 248 1.0 6.0 0.00 0.00 0.00 41 1011.8
20260904133018 92 209 1.0 7.0 0.00 0.00 0.00 40 1012.0
20260904131520 92 211 0.0 8.0 0.00 0.00 0.00 42 1012.0
20260904130028 92 196 0.0 6.0 0.00 0.00 0.00 42 1012.2
20260904124513 92 286 0.0 5.0 0.00 0.00 0.00 42 1012.3
20260904123012 91 261 0.0 2.0 0.00 0.00 0.00 44 1012.4
20260904121510 90 231 0.0 7.0 0.00 0.00 0.00 43 1012.5
20260904120008 90 190 0.0 2.0 0.00 0.00 0.00 44 1012.6
20260904114514 90 236 0.0 1.0 0.00 0.00 0.00 45 1012.7
20260904113005 90 279 0.0 6.0 0.00 0.00 0.00 45 1012.9
20260904111503 90 196 0.0 4.0 0.00 0.00 0.00 45 1013.0
20260904110003 90 220 0.0 7.0 0.00 0.00 0.00 44 1013.2
20260904104502 89 220 0.0 5.0 0.00 0.00 0.00 46 1013.2
20260904103003 89 225 0.0 7.0 0.00 0.00 0.00 44 1013.4
20260904101559 89 94 0.0 2.0 0.00 0.00 0.00 44 1013.4
20260904100057 88 202 0.0 1.0 0.00 0.00 0.00 45 1013.5
20260904094602 86 225 0.0 4.0 0.00 0.00 0.00 48 1013.6
20260904093105 87 206 0.0 4.0 0.00 0.00 0.00 47 1013.7
20260904091555 87 242 0.0 0.0 0.00 0.00 0.00 46 1013.7
20260904090053 86 80 0.0 0.0 0.00 0.00 0.00 46 1013.6
20260904084552 87 72 0.0 0.0 0.00 0.00 0.00 47 1013.7
20260904083050 86 74 0.0 0.0 0.00 0.00 0.00 48 1013.7
20260904081547 85 61 0.0 0.0 0.00 0.00 0.00 49 1013.7
20260904080045 85 63 0.0 0.0 0.00 0.00 0.00 52 1013.8
20260904074542 84 74 0.0 0.0 0.00 0.00 0.00 53 1013.7
20260904073043 84 86 0.0 0.0 0.00 0.00 0.00 49 1013.7
20260904071536 82 293 0.0 0.0 0.00 0.00 0.00 54 1013.6
20260904070033 81 291 0.0 0.0 0.00 0.00 0.00 57 1013.5
20260904064529 79 291 0.0 0.0 0.00 0.00 0.00 61 1013.5
20260904063034 79 291 0.0 0.0 0.00 0.00 0.00 60 1013.5
20260904061526 78 291 0.0 0.0 0.00 0.00 0.00 62 1013.5
20260904060023 76 291 0.0 0.0 0.00 0.00 0.00 64 1013.5
20260904054522 73 291 0.0 0.0 0.00 0.00 0.00 67 1013.5
20260904053021 72 291 0.0 0.0 0.00 0.00 0.00 68 1013.3
20260904051519 71 291 0.0 0.0 0.00 0.00 0.00 70 1013.2
20260904050018 70 289 0.0 0.0 0.00 0.00 0.00 71 1013.2
20260904044521 70 360 0.0 0.0 0.00 0.00 0.00 71 1013.2
20260904043017 70 9 0.0 0.0 0.00 0.00 0.00 72 1013.1
20260904041517 70 17 0.0 0.0 0.00 0.00 0.00 72 1013.0
20260904040016 70 28 0.0 0.0 0.00 0.00 0.00 72 1013.1
20260904034519 70 31 0.0 0.0 0.00 0.00 0.00 72 1013.2
20260904033015 70 31 0.0 0.0 0.00 0.00 0.00 72 1013.2
20260904031513 69 31 0.0 0.0 0.00 0.00 0.00 72 1013.2
20260904030012 69 31 0.0 0.0 0.00 0.00 0.00 72 1013.2
20260904024515 69 31 0.0 0.0 0.00 0.00 0.00 73 1013.2
20260904023012 69 31 0.0 0.0 0.00 0.00 0.00 73 1013.3
20260904021511 70 31 0.0 0.0 0.00 0.00 0.00 73 1013.3
20260904020008 70 32 0.0 0.0 0.00 0.00 0.00 71 1013.2
20260904014505 71 311 0.0 0.0 0.00 0.00 0.00 69 1013.1
20260904013004 71 311 0.0 0.0 0.00 0.00 0.00 68 1013.1
20260904011503 72 311 0.0 0.0 0.00 0.00 0.00 68 1013.1
20260904010001 72 302 0.0 0.0 0.00 0.00 0.00 67 1013.1
20260904004501 72 302 0.0 0.0 0.00 0.00 0.00 66 1013.0
20260904003103 72 302 0.0 0.0 0.00 0.00 0.00 67 1013.1
20260904001559 72 302 0.0 0.0 0.00 0.00 0.00 66 1013.1
20260904000119 73 302 0.0 0.0 0.00 0.00 0.00 67 1013.0
20260903234556 73 302 0.0 0.0 0.00 0.00 0.00 65 1013.0
20260903233057 73 300 0.0 0.0 0.00 0.00 0.00 66 1012.9
20260903231555 73 300 0.0 0.0 0.00 0.00 0.00 65 1012.9
20260903230054 73 300 0.0 0.0 0.00 0.00 0.00 64 1013.0
20260903224610 74 300 0.0 0.0 0.00 0.00 0.00 64 1013.0
20260903223048 75 275 0.0 0.0 0.00 0.00 0.00 61 1013.0
20260903221546 75 275 0.0 0.0 0.00 0.00 0.00 60 1013.0
20260903220047 75 275 0.0 0.0 0.00 0.00 0.00 60 1012.8
20260903214605 76 232 0.0 0.0 0.00 0.00 0.00 60 1012.8
20260903213057 76 232 0.0 0.0 0.00 0.00 0.00 60 1012.6
20260903211543 76 232 0.0 0.0 0.00 0.00 0.00 59 1012.5
20260903210106 76 232 0.0 0.0 0.00 0.00 0.00 58 1012.4
20260903204549 76 232 0.0 0.0 0.00 0.00 0.00 58 1012.5
20260903203103 77 231 0.0 0.0 0.00 0.00 0.00 58 1012.5
20260903201545 77 218 0.0 0.0 0.00 0.00 0.00 57 1012.4
20260903200050 78 218 0.0 0.0 0.00 0.00 0.00 56 1012.4
20260903194541 78 218 0.0 0.0 0.00 0.00 0.00 56 1012.5
20260903193041 78 215 0.0 0.0 0.00 0.00 0.00 55 1012.4
20260903191541 79 210 0.0 0.0 0.00 0.00 0.00 53 1012.4
20260903190040 80 210 0.0 0.0 0.00 0.00 0.00 53 1012.2
20260903184539 80 210 0.0 0.0 0.00 0.00 0.00 53 1012.1
20260903183045 80 210 0.0 0.0 0.00 0.00 0.00 53 1011.9
20260903181537 81 210 0.0 0.0 0.00 0.00 0.00 51 1011.9
20260903180043 81 210 0.0 0.0 0.00 0.00 0.00 50 1011.8
20260903174538 82 210 0.0 0.0 0.00 0.00 0.00 51 1011.8
20260903173037 82 210 0.0 0.0 0.00 0.00 0.00 50 1011.6